Location: Chuathbaluk
(61.5726°N, 159.2454°W)
Time: 03:03:18
(UTC+00:00)

Transit 4A - Pass Details

Date: 05 December 2020
Orbit: 864 x 980 km, 66.8° (Epoch: 26 January)

Event Time Altitude Azimuth Distance (km) Brightness Sun altitude
Rises 17:22:52 0° 199° (SSW) 3,652 11.1 -13.4°
Reaches altitude 10° 17:25:31 10° 193° (SSW) 2,718 10.5 -13.1°
Maximum altitude 17:31:28 44° 124° (SE) 1,340 9.3 -12.5°
Drops below altitude 10° 17:37:29 10° 55° (NE) 2,741 10.8 -11.8°
Sets 17:40:10 0° 50° (NE) 3,687 11.3 -11.5°
